STARLINK-32544, 61917

Orbit data source: Space-Track

STARLINK-32544, 61917 is a payload satellite owned by SpaceX/Seattle (US) in LEO that was launched on Mon, 11 Nov 2024 UTC via an FALCON 9 launch vehicle from the Air Force Eastern Test Range (AFETR). Payload-class satellites include a variety of spacecraft equipped with specific instruments for various scientific and technological missions. These include communications satellites like Starlink; space stations such as the ISS; scientific satellites like the Hubble; Earth observation satellites from companies like Planet Labs, Umbra, and HawkEye 360; GPS; miniature CubeSats for education and research; and military/defense satellites.

Loading next visibility...
Identifier
61917, 2024-207F
Orbit
LEO
Country
Flag of USUS
Related business
Manufacturer
SpaceX/Seattle
Mission
Operational Commercial Communications
Bus & Motor
STARLINK V2M, Unknown motor
Mass
730 kg wet, ~700 kg dry
Launch date (UTC)
2024-11-11 (2 years ago)
Launch vehicle
FALCON 9
Launch site
Air Force Eastern Test Range (AFETR)
Object type
Payload
Rocket body
Debris
Shape & HBR
Box + 2 Pan, 17.7 m
Radar Cross Section
33.884 m², Large (>1 m²)

Expand to show TLE details & history
Last TLE update: 10 hours ago

TLE from 10 hours ago
0 STARLINK-32544
1 61917U 24207F   26145.51893881  .00024812  00000-0  90768-3 0  9990
2 61917  42.9993 207.7171 0001636 269.4501  90.6163 15.27596559 86474
Epoch: 2026-05-25T12:27Z
TLE epoch observation values (Epoch: 2026-05-25T12:27:16.313Z)
Latitude
-0.00002°
Longitude
137.79354°
Altitude
482.787 km
Speed
7.626 km/s
True Right ascension
13h 50m 52s
True Declination
0° 00' 00"
Sunlit
Object was in full shadow at epoch
Visualization orbit readout
Latitude
Unknown
Longitude
Unknown
Altitude
Unknown
Speed
Unknown
Apparent Right ascension
Unknown
Apparent Declination
Unknown
Sunlit
N/A
Visualization observer readout
Local Sidereal Time
08:10:56
Azimuth
Unknown
Elevation
Unknown
Doppler factor
Unknown
Orbital elements
Apogee altitude
486.068 km
Perigee altitude
483.822 km
Semi-major axis
6,863.082 km
Eccentricity
0.00016
Inclination
42.9993°
RAAN
207.7171°
Arg. of periapsis
269.4501°
True anomaly
90.63505°
Mean anomaly
90.6163°
Eccentric anomaly
90.62567°
Mean motion
3.81737 °/min
Orbital period
94.31 mins
BSTAR
0.00090768
Loading maneuver chart data...
Computing Atmospheric mass density...
Loading historical data...
Loading historical data...
Loading historical data...
Loading historical data...
Loading historical data...
Loading historical data...
Loading historical data...

Documentation

Showing up to 5 results
|